Location: Staunton
(38.1490°N, 79.0720°W)
Time: 03:27:20
(UTC-04:00)

ISS - Pass Details

Date: 21 September 2017
Orbit: 401 x 407 km, 51.6° (Epoch: 23 September)

Event Time Altitude Azimuth Distance (km) Brightness Sun altitude
Exits shadow 05:10:34 40° 116° (ESE) 608 -2.7 -22.5°
Drops below altitude 10° 05:12:49 10° 125° (SE) 1,459 -0.6 -22.1°
Sets 05:14:54 0° 127° (SE) 2,315 0.5 -21.7°
